|
Cosmos 1452 Rocket - Orbit
|
Luz Observatory;
01:53:27
| Home | Info | Passes |
|
View from above orbital plane
|
View from above satellite
|
Ground track
|
The orbit data is extracted from the following two-line orbital elements,
1 13992U 83031B 13145.20428508 .00000143 00000-0 58711-4 0 1415
2 13992 074.0528 208.0054 0005272 212.0628 205.1995 14.35552869575813
| Epoch (UTC): | 25 May 2013 04:54:10 |
| Eccentricity: | 0.0005272 |
| inclination: | 74.0528° |
| perigee height: | 769 km |
| apogee height: | 777 km |
| right ascension of ascending node: | 208.0054° |
| argument of perigee: | 212.0628° |
| revolutions per day: | 14.35552869 |
| mean anomaly at epoch: | 205.1995° |
| orbit number at epoch: | 57581 |
The dashed part of the orbit path shows where the satellite is in the earth's shadow,
|
|